Location: Paris
(48.6709°N, 2.3750°E)
Time: 12:36:58
(UTC+02:00)

YUBILEINY - Pass Details

Date: 07 July 2022
Orbit: 1478 x 1509 km, 82.5° (Epoch: 07 August)

Event Time Altitude Azimuth Distance (km) Brightness Sun altitude
Rises 04:49:35 0° 350° (N) 4,651 ? -8.8°
Reaches altitude 10° 04:52:36 10° 355° (N) 3,663 ? -8.5°
Maximum altitude 05:01:16 58° 73° (ENE) 1,709 ? -7.6°
Drops below altitude 10° 05:09:50 10° 152° (SSE) 3,621 ? -6.6°
Sets 05:12:46 0° 156° (SSE) 4,594 ? -6.2°
